Guymon, OK

4:50 PM CST on February 22, 2018 (GMT -0600)
Guymon Municipal

Weather History for KGUY - May, 2013

Change the Weather History Date:

Monday, May 13, 2013

  Actual Average Record
Temperature  
Mean Temperature 72 °F 64 °F  
Max Temperature 95 °F 79 °F 95 °F (2003)
Min Temperature 49 °F 50 °F 35 °F (2000)
Degree Days  
Heating Degree Days 0 3  
Month to date heating degree days 97 60  
Since 1 July heating degree days 4310 4413  
Cooling Degree Days 7 3  
Month to date cooling degree days 12 23  
Year to date cooling degree days 37 38  
Growing Degree Days 22 (Base 50)    
Moisture  
Dew Point 34 °F    
Average Humidity 35    
Maximum Humidity 59    
Minimum Humidity 11    
Precipitation  
Precipitation 0.00 in 0.06 in 0.47 in (2015)
Month to date precipitation 0.13 0.76  
Year to date precipitation 2.32 4.57  
Snow  
Snow 0.00 in - - ()
Month to date snowfall 0.3  
Since 1 July snowfall 22.3  
Snow Depth 0.00 in    
Sea Level Pressure  
Sea Level Pressure 29.94 in    
Wind  
Wind Speed 10 mph (SW)    
Max Wind Speed 21 mph    
Max Gust Speed 28 mph    
Visibility 10 miles    
Events      
T = Trace of Precipitation, MM = Missing Value Source: NWS Daily Summary

Daily Weather History Graph

Daily Weather History Graph

Search for Another Location

Airport or City:

Trip Planner

Search our weather history database for the weather conditions in past years. The results will help you decide how hot, cold, wet, or windy it might be!

Date:

Astronomy

May. 13, 2013 Rise Set
Actual Time 6:40 AM CDT 8:45 PM CDT
Civil Twilight 6:11 AM CDT 9:13 PM CDT
Nautical Twilight 5:36 AM CDT 9:49 PM CDT
Astronomical Twilight 4:58 AM CDT 10:27 PM CDT
Moon 9:28 AM CDT (5/13) 11:55 PM CDT (5/13)
Length of Visible Light 15h 02m
Length of Day
14h 04m
Waxing Crescent, 12% of the Moon is Illuminated
May 13
Waxing Crescent
May 17
First Quarter
May 24
Full
May 31
Last Quarter
Jun 8
New

Hourly Weather History & Observations

Time (CDT) Temp. Dew Point Humidity Pressure Visibility Wind Dir Wind Speed Gust Speed Precip Events Conditions
12:53 AM 57.9 °F 37.0 °F 46% 29.98 in 10.0 mi SSW 5.8 mph - N/A   Clear
1:53 AM 55.9 °F 36.0 °F 47% 29.98 in 10.0 mi Calm Calm - N/A   Clear
2:53 AM 55.0 °F 37.0 °F 51% 29.97 in 10.0 mi WSW 5.8 mph - N/A   Clear
3:53 AM 52.0 °F 37.9 °F 59% 29.96 in 10.0 mi SW 8.1 mph - N/A   Clear
4:53 AM 51.1 °F 37.0 °F 59% 29.97 in 10.0 mi SW 3.5 mph - N/A   Clear
5:53 AM 52.0 °F 35.1 °F 53% 29.97 in 10.0 mi WSW 4.6 mph - N/A   Clear
6:53 AM 52.0 °F 34.0 °F 50% 29.98 in 10.0 mi SW 5.8 mph - N/A   Clear
7:53 AM 60.1 °F 34.0 °F 38% 29.99 in 10.0 mi WSW 10.4 mph - N/A   Clear
8:53 AM 66.9 °F 34.0 °F 30% 30.00 in 10.0 mi WSW 13.8 mph - N/A   Clear
9:53 AM 75.0 °F 37.0 °F 25% 30.00 in 10.0 mi SW 11.5 mph - N/A   Clear
10:53 AM 84.0 °F 37.0 °F 19% 29.98 in 10.0 mi SW 10.4 mph - N/A   Clear
11:53 AM 89.1 °F 32.0 °F 13% 29.96 in 10.0 mi SSW 12.7 mph 20.7 mph N/A   Clear
12:53 PM 91.0 °F 32.0 °F 12% 29.96 in 10.0 mi SSW 12.7 mph 21.9 mph N/A   Clear
1:53 PM 91.9 °F 32.0 °F 12% 29.95 in 10.0 mi SW 11.5 mph 21.9 mph N/A   Clear
3:53 PM 93.0 °F 32.0 °F 12% 29.92 in 10.0 mi South 11.5 mph - N/A   Clear
4:53 PM 91.9 °F 32.0 °F 12% 29.91 in 10.0 mi SSW 12.7 mph 27.6 mph N/A   Clear
5:53 PM 93.0 °F 32.0 °F 12% 29.88 in 10.0 mi South 16.1 mph 24.2 mph N/A   Clear
7:53 PM 86.0 °F 34.0 °F 16% 29.86 in 10.0 mi South 8.1 mph - N/A   Clear
8:53 PM 79.0 °F 33.1 °F 19% 29.87 in 10.0 mi South 8.1 mph - N/A   Clear
9:53 PM 71.1 °F 35.1 °F 27% 29.88 in 10.0 mi SSW 6.9 mph - N/A   Clear
10:53 PM 69.1 °F 35.1 °F 29% 29.88 in 10.0 mi SSW 11.5 mph - N/A   Clear
11:53 PM 72.0 °F 32.0 °F 23% 29.87 in 10.0 mi SSW 17.3 mph - N/A   Clear